Hourly Data Report for August 10, 2020

SVARTEVAEG
NUNAVUT
Current Station Operator: ECCC - MSC

81°09'39.000" N
91°48'59.060" W
72.00 m
2403833
71872
NSG

Download Data

Hourly Data (August 2020)
Hourly Data Report for August 10, 2020
TIME Temp Definition
°C
Dew Point Definition
°C
Rel Hum Definition
%
Wind Dir Definition
10's deg

Wind Spd Definition
km/h
Visibility Definition
km
Stn Press Definition
kPa
Hmdx Definition


Wind Chill Definition


Weather Definition


00:00 1.0 -1.0 87 34 21   100.36     LegendNANA
01:00 0.3 -1.2 90 35 25   100.33     LegendNANA
02:00 2.3 -1.0 78 34 28   100.31     LegendNANA
03:00 1.8 -1.0 81 35 22   100.30     LegendNANA
04:00 1.2 -0.8 86 36 20   100.27     LegendNANA
05:00 1.5 -0.6 85 35 25   100.25     LegendNANA
06:00 2.6 -0.9 78 35 24   100.22     LegendNANA
07:00 2.3 -1.0 79 35 22   100.18     LegendNANA
08:00 2.4 -0.6 80 35 26   100.12     LegendNANA
09:00 3.7 -0.8 73 35 26   100.09     LegendNANA
10:00 2.5 -0.9 78 35 23   100.02     LegendNANA
11:00 1.4 -0.6 87 35 27   99.98     LegendNANA
12:00 2.5 -0.6 80 35 25   99.95     LegendNANA
13:00 2.1 -0.7 82 35 23   99.90     LegendNANA
14:00 1.3 -0.6 87 35 24   99.88     LegendNANA
15:00 1.0 -0.5 90 35 25   99.84     LegendNANA
16:00 0.9 -0.6 89 35 20   99.81     LegendNANA
17:00 1.1 -0.5 89 35 22   99.77     LegendNANA
18:00 2.2 -0.7 81 36 16   99.75     LegendNANA
19:00 4.2 -0.4 72 35 14   99.69     LegendNANA
20:00 5.5 -0.9 63 33 4   99.64     LegendNANA
21:00 6.1 -0.7 62 31 3   99.62     LegendNANA
22:00 6.3 -0.8 60 7 2   99.57     LegendNANA
23:00 5.0 -0.1 69 14 8   99.52     LegendNANA

Notes on Data Quality.

Legend

  • E = Estimated
  • M = Missing
  • NA = Not Available*
  • [empty] = Indicates an unobserved value
Date modified: